Weather History for West Palm Beach, FL

Change the Weather History Date:

Sunday, April 6, 2014

  Actual Average Record
Temperature  
Mean Temperature 77 °F 72 °F  
Max Temperature 86 °F 81 °F 93 °F (2009)
Min Temperature 67 °F 65 °F 38 °F (1920)
Degree Days  
Heating Degree Days 0 0  
Month to date heating degree days 0 0  
Since 1 July heating degree days 122 229  
Cooling Degree Days 12 8  
Month to date cooling degree days 52 45  
Year to date cooling degree days 600 473  
Growing Degree Days 26 (Base 50)    
Moisture  
Dew Point 65 °F    
Average Humidity 69    
Maximum Humidity 90    
Minimum Humidity 48    
Precipitation  
Precipitation 0.00 in 0.13 in 3.77 in (1937)
Month to date precipitation 0.00 0.84  
Year to date precipitation 13.88 11.38  
Snow  
Snow 0.00 in - - ()
Month to date snowfall 0.0  
Since 1 July snowfall 0.0  
Snow Depth 0.00 in    
Sea Level Pressure  
Sea Level Pressure 29.99 in    
Wind  
Wind Speed 9 mph (SSE)    
Max Wind Speed 18 mph    
Max Gust Speed 26 mph    
Visibility 10 miles    
Events      
T = Trace of Precipitation, MM = Missing Value Source: NWS Daily Summary

Daily Weather History Graph

Daily Weather History Graph

Search for Another Location

Airport:

Trip Planner

Search our weather history database for the weather conditions in past years. The results will help you decide how hot, cold, wet, or windy it might be!

Date:

Astronomy

Apr. 06, 2014 Rise Set
Actual Time 7:05 AM EDT 7:40 PM EDT
Civil Twilight 6:42 AM EDT 8:03 PM EDT
Nautical Twilight 6:15 AM EDT 8:30 PM EDT
Astronomical Twilight 5:47 AM EDT 8:58 PM EDT
Moon 12:22 PM EDT (4/6) 1:17 AM EDT (4/6)
Length of Visible Light 13h 20m
Length of Day
12h 34m
Waxing Crescent, 43% of the Moon is Illuminated
Apr 6
Waxing Crescent
Apr 7
First Quarter
Apr 15
Full
Apr 22
Last Quarter
Apr 29
New

Hourly Weather History & Observations

Time (EDT) Temp. Heat Index Dew Point Humidity Pressure Visibility Wind Dir Wind Speed Gust Speed Precip Events Conditions
12:53 AM 73.9 °F - 64.9 °F 73% 30.04 in 10.0 mi South 4.6 mph - N/A   Mostly Cloudy
1:53 AM 71.1 °F - 64.9 °F 81% 30.03 in 10.0 mi SW 3.5 mph - N/A   Scattered Clouds
2:53 AM 70.0 °F - 64.9 °F 84% 30.01 in 10.0 mi Calm Calm - N/A   Partly Cloudy
3:53 AM 70.0 °F - 64.9 °F 84% 30.01 in 10.0 mi Calm Calm - N/A   Partly Cloudy
4:53 AM 70.0 °F - 66.0 °F 87% 30.01 in 10.0 mi Calm Calm - N/A   Partly Cloudy
5:53 AM 69.1 °F - 66.0 °F 90% 30.01 in 10.0 mi Calm Calm - N/A   Partly Cloudy
6:53 AM 69.1 °F - 66.0 °F 90% 30.01 in 10.0 mi SE 3.5 mph - N/A   Scattered Clouds
7:53 AM 71.1 °F - 66.0 °F 84% 30.01 in 10.0 mi Calm Calm - N/A   Mostly Cloudy
8:53 AM 75.9 °F - 66.0 °F 71% 30.02 in 10.0 mi South 4.6 mph - N/A   Scattered Clouds
9:53 AM 80.1 °F 82.1 °F 66.0 °F 62% 30.02 in 10.0 mi SSE 12.7 mph - N/A   Scattered Clouds
10:53 AM 81.0 °F 82.5 °F 64.0 °F 56% 30.01 in 10.0 mi SSE 15.0 mph - N/A   Scattered Clouds
11:53 AM 82.0 °F 83.4 °F 64.0 °F 54% 30.00 in 10.0 mi SSE 16.1 mph - N/A   Mostly Cloudy
12:53 PM 82.9 °F 84.6 °F 64.9 °F 54% 29.99 in 10.0 mi South 13.8 mph 23.0 mph N/A   Mostly Cloudy
1:53 PM 84.9 °F 85.9 °F 63.0 °F 48% 29.98 in 10.0 mi South 12.7 mph - N/A   Mostly Cloudy
2:53 PM 84.0 °F 84.9 °F 63.0 °F 49% 29.97 in 10.0 mi SE 13.8 mph 17.3 mph N/A   Mostly Cloudy
3:53 PM 82.9 °F 84.4 °F 64.0 °F 53% 29.96 in 10.0 mi SE 12.7 mph - N/A   Mostly Cloudy
4:53 PM 82.9 °F 84.0 °F 63.0 °F 51% 29.94 in 10.0 mi ESE 13.8 mph - N/A   Mostly Cloudy
5:53 PM 81.0 °F 82.2 °F 63.0 °F 54% 29.94 in 10.0 mi SE 13.8 mph - N/A   Mostly Cloudy
6:53 PM 79.0 °F - 64.0 °F 60% 29.94 in 10.0 mi SE 15.0 mph - N/A   Mostly Cloudy
7:53 PM 77.0 °F - 64.9 °F 66% 29.96 in 10.0 mi SE 11.5 mph - N/A   Mostly Cloudy
8:53 PM 75.9 °F - 66.0 °F 71% 29.97 in 10.0 mi SE 11.5 mph - N/A   Scattered Clouds
9:53 PM 75.9 °F - 64.9 °F 69% 29.99 in 10.0 mi SE 10.4 mph - N/A   Partly Cloudy
10:53 PM 75.9 °F - 64.9 °F 69% 30.00 in 10.0 mi SE 13.8 mph - N/A   Partly Cloudy
11:53 PM 75.9 °F - 66.0 °F 71% 29.99 in 10.0 mi SE 12.7 mph - N/A   Partly Cloudy